This is the latest recevied weather packets stored in our database for station/object W1LBM. If no packets are shown the sender has not sent any weather packets the latest 1 day(s).
| Time | Temp. | Humidity | Pressure | Rain* | Wind** | Luminosity | Snow |
|---|---|---|---|---|---|---|---|
| 1778064766 | 14.44° C | 88% | 1014.4 hPa | 0 mm | - | 45 W/m² | - |
| 1778064161 | 14.44° C | 88% | 1014.3 hPa | 0 mm | - | 28 W/m² | - |
| 1778063858 | 14.44° C | 88% | 1014.3 hPa | 0 mm | - | 33 W/m² | - |
| 1778063253 | 14.44° C | 88% | 1014.4 hPa | 0 mm | - | 32 W/m² | - |
| 1778062951 | 14.44° C | 88% | 1014.1 hPa | 0 mm | - | 33 W/m² | - |
| 1778062647 | 14.44° C | 88% | 1014.3 hPa | 0 mm | - | 33 W/m² | - |
| 1778062042 | 14.44° C | 88% | 1014.2 hPa | 0 mm | - | 17 W/m² | - |
| 1778061740 | 14.44° C | 87% | 1014.1 hPa | 0 mm | - | 13 W/m² | - |
| 1778061438 | 14.44° C | 87% | 1014.2 hPa | 0 mm | - | 11 W/m² | - |
| 1778059320 | 15° C | 86% | 1013.9 hPa | 0 mm | - | 0 W/m² | - |
| 1778058715 | 15° C | 85% | 1014.2 hPa | 0 mm | - | 0 W/m² | - |
| 1778058109 | 15° C | 85% | 1014.2 hPa | 0 mm | - | 0 W/m² | - |
| 1778057806 | 15° C | 85% | 1014 hPa | 0 mm | - | 0 W/m² | - |
| 1778057502 | 15° C | 85% | 1014.2 hPa | 0 mm | - | 0 W/m² | - |
| 1778056896 | 15.56° C | 84% | 1014.3 hPa | 0 mm | - | 0 W/m² | - |
| 1778055682 | 15.56° C | 83% | 1014.1 hPa | 0 mm | - | 0 W/m² | - |
| 1778055381 | 15.56° C | 82% | 1014.1 hPa | 0 mm | - | 0 W/m² | - |
| 1778055078 | 15.56° C | 82% | 1014.5 hPa | 0 mm | - | 0 W/m² | - |
| 1778054472 | 15.56° C | 82% | 1014.2 hPa | 0 mm | - | 0 W/m² | - |
| 1778054170 | 15.56° C | 82% | 1014.3 hPa | 0 mm | - | 0 W/m² | - |
| 1778053866 | 15.56° C | 82% | 1014.4 hPa | 0 mm | - | 0 W/m² | - |
| 1778053564 | 15.56° C | 82% | 1014.3 hPa | 0 mm | - | 0 W/m² | - |
| 1778053261 | 16.11° C | 81% | 1014.1 hPa | 0 mm | - | 0 W/m² | - |
| 1778052656 | 16.11° C | 80% | 1014.1 hPa | 0 mm | - | 0 W/m² | - |
| 1778051748 | 16.11° C | 80% | 1014.1 hPa | 0 mm | - | 0 W/m² | - |
* Rain latest hour (hover to see other rain measurements)
** Current wind speed in m/s (hover to see current wind gust speed)